| time (UTC) | temp F | wind direction | speed MPH | gust MPH | rain 1hr in | rain 24hr in | rain mn in | humidity % | barometer mb |
| 20260510122051 | 62 | 345 | 0.0 | 2.0 | 0.00 | 0.00 | 0.00 | 89 | 1009.7 |
| 20260510121549 | 62 | 103 | 1.0 | 3.0 | 0.00 | 0.00 | 0.00 | 90 | 1009.6 |
| 20260510121046 | 61 | 140 | 1.0 | 2.0 | 0.00 | 0.00 | 0.00 | 92 | 1009.4 |
| 20260510120544 | 60 | 141 | 2.0 | 2.0 | 0.00 | 0.00 | 0.00 | 94 | 1009.5 |
| 20260510120038 | 59 | 33 | 0.0 | 2.0 | 0.00 | 0.00 | 0.00 | 95 | 1009.5 |
| 20260510115536 | 59 | 106 | 2.0 | 2.0 | 0.00 | 0.00 | 0.00 | 96 | 1009.4 |
| 20260510115033 | 58 | 133 | 0.0 | 0.0 | 0.00 | 0.00 | 0.00 | 96 | 1009.4 |
| 20260510114528 | 58 | 251 | 0.0 | 2.0 | 0.00 | 0.00 | 0.00 | 96 | 1009.3 |
| 20260510114025 | 57 | 48 | 0.0 | 2.0 | 0.00 | 0.00 | 0.00 | 96 | 1009.2 |
| 20260510113520 | 57 | 131 | 1.0 | 2.0 | 0.00 | 0.00 | 0.00 | 96 | 1009.2 |
| 20260510113018 | 57 | 81 | 1.0 | 2.0 | 0.00 | 0.00 | 0.00 | 96 | 1009.0 |
| 20260510112514 | 57 | 128 | 1.0 | 2.0 | 0.00 | 0.00 | 0.00 | 96 | 1009.1 |
| 20260510112010 | 56 | 54 | 0.0 | 2.0 | 0.00 | 0.00 | 0.00 | 96 | 1009.2 |
| 20260510111508 | 56 | 273 | 0.0 | 2.0 | 0.00 | 0.00 | 0.00 | 96 | 1008.9 |
| 20260510111003 | 56 | 84 | 2.0 | 2.0 | 0.00 | 0.00 | 0.00 | 96 | 1009.0 |
| 20260510110459 | 55 | 99 | 1.0 | 2.0 | 0.00 | 0.00 | 0.00 | 96 | 1008.9 |
| 20260510105956 | 55 | 140 | 0.0 | 2.0 | 0.00 | 0.00 | 0.00 | 96 | 1008.7 |
| 20260510105451 | 55 | 123 | 0.0 | 2.0 | 0.00 | 0.00 | 0.00 | 96 | 1008.8 |
| 20260510104946 | 56 | 112 | 2.0 | 3.0 | 0.00 | 0.00 | 0.00 | 96 | 1008.6 |
| 20260510104443 | 56 | 97 | 0.0 | 2.0 | 0.00 | 0.00 | 0.00 | 96 | 1008.6 |
| 20260510103939 | 56 | 157 | 1.0 | 2.0 | 0.00 | 0.00 | 0.00 | 96 | 1008.4 |
| 20260510103437 | 56 | 146 | 0.0 | 2.0 | 0.00 | 0.00 | 0.00 | 96 | 1008.4 |
| 20260510102932 | 56 | 99 | 1.0 | 2.0 | 0.00 | 0.00 | 0.00 | 96 | 1008.3 |
| 20260510102428 | 56 | 155 | 2.0 | 2.0 | 0.00 | 0.00 | 0.00 | 96 | 1008.2 |
| 20260510101925 | 56 | 112 | 0.0 | 2.0 | 0.00 | 0.00 | 0.00 | 97 | 1008.2 |
| 20260510101423 | 56 | 182 | 0.0 | 2.0 | 0.00 | 0.00 | 0.00 | 96 | 1008.1 |
| 20260510100921 | 56 | 164 | 1.0 | 2.0 | 0.00 | 0.00 | 0.00 | 97 | 1008.0 |
| 20260510100417 | 56 | 115 | 0.0 | 1.0 | 0.00 | 0.00 | 0.00 | 97 | 1007.8 |
| 20260510095913 | 56 | 187 | 0.0 | 2.0 | 0.00 | 0.00 | 0.00 | 96 | 1008.0 |
| 20260510095409 | 56 | 162 | 1.0 | 1.0 | 0.00 | 0.00 | 0.00 | 96 | 1007.9 |
| 20260510094908 | 55 | 196 | 0.0 | 1.0 | 0.00 | 0.00 | 0.00 | 96 | 1007.9 |
| 20260510094403 | 56 | 154 | 0.0 | 2.0 | 0.00 | 0.00 | 0.00 | 96 | 1007.7 |
| 20260510093900 | 56 | 174 | 0.0 | 2.0 | 0.00 | 0.00 | 0.00 | 96 | 1007.6 |
| 20260510093355 | 56 | 232 | 0.0 | 2.0 | 0.00 | 0.00 | 0.00 | 96 | 1007.5 |
| 20260510092852 | 56 | 142 | 0.0 | 2.0 | 0.00 | 0.00 | 0.00 | 96 | 1007.5 |
| 20260510092349 | 56 | 86 | 0.0 | 2.0 | 0.00 | 0.00 | 0.00 | 96 | 1007.5 |
| 20260510091844 | 57 | 77 | 0.0 | 2.0 | 0.00 | 0.00 | 0.00 | 96 | 1007.4 |
| 20260510091341 | 57 | 152 | 1.0 | 2.0 | 0.00 | 0.00 | 0.00 | 96 | 1007.4 |
| 20260510090837 | 57 | 192 | 2.0 | 2.0 | 0.00 | 0.00 | 0.00 | 95 | 1007.4 |
| 20260510090329 | 57 | 131 | 1.0 | 2.0 | 0.00 | 0.00 | 0.00 | 95 | 1007.1 |
| 20260510085824 | 57 | 164 | 1.0 | 2.0 | 0.00 | 0.00 | 0.00 | 95 | 1007.2 |
| 20260510085319 | 57 | 128 | 0.0 | 2.0 | 0.00 | 0.00 | 0.00 | 95 | 1007.0 |
| 20260510084815 | 57 | 144 | 1.0 | 2.0 | 0.00 | 0.00 | 0.00 | 95 | 1007.1 |
| 20260510084312 | 57 | 102 | 0.0 | 2.0 | 0.00 | 0.00 | 0.00 | 95 | 1007.1 |
| 20260510083809 | 57 | 135 | 0.0 | 1.0 | 0.00 | 0.00 | 0.00 | 95 | 1006.8 |
| 20260510083306 | 58 | 158 | 0.0 | 2.0 | 0.00 | 0.00 | 0.00 | 95 | 1006.9 |
| 20260510082801 | 58 | 191 | 2.0 | 2.0 | 0.00 | 0.00 | 0.00 | 94 | 1007.2 |
| 20260510082258 | 58 | 141 | 2.0 | 2.0 | 0.00 | 0.00 | 0.00 | 95 | 1007.0 |
| 20260510081756 | 58 | 214 | 1.0 | 2.0 | 0.00 | 0.00 | 0.00 | 95 | 1007.0 |
| 20260510081253 | 57 | 177 | 0.0 | 2.0 | 0.00 | 0.00 | 0.00 | 95 | 1006.9 |
| 20260510080748 | 57 | 180 | 0.0 | 2.0 | 0.00 | 0.00 | 0.00 | 95 | 1006.9 |
| 20260510080244 | 57 | 78 | 0.0 | 2.0 | 0.00 | 0.00 | 0.00 | 95 | 1006.9 |
| 20260510075741 | 57 | 141 | 1.0 | 2.0 | 0.00 | 0.00 | 0.00 | 94 | 1006.9 |
| 20260510075239 | 57 | 148 | 0.0 | 2.0 | 0.00 | 0.00 | 0.00 | 94 | 1007.0 |
| 20260510074736 | 57 | 122 | 1.0 | 2.0 | 0.00 | 0.00 | 0.00 | 93 | 1007.0 |
| 20260510074232 | 57 | 138 | 0.0 | 2.0 | 0.00 | 0.00 | 0.00 | 93 | 1006.9 |
| 20260510073728 | 57 | 145 | 0.0 | 2.0 | 0.00 | 0.00 | 0.00 | 93 | 1006.6 |
| 20260510073224 | 57 | 139 | 0.0 | 2.0 | 0.00 | 0.00 | 0.00 | 93 | 1006.8 |
| 20260510072720 | 58 | 144 | 1.0 | 2.0 | 0.00 | 0.00 | 0.00 | 92 | 1006.7 |
| 20260510072217 | 58 | 103 | 0.0 | 2.0 | 0.00 | 0.00 | 0.00 | 92 | 1006.6 |
| 20260510071714 | 58 | 110 | 0.0 | 1.0 | 0.00 | 0.00 | 0.00 | 92 | 1006.8 |
| 20260510071210 | 58 | 124 | 0.0 | 1.0 | 0.00 | 0.00 | 0.00 | 92 | 1006.8 |
| 20260510070709 | 58 | 158 | 1.0 | 2.0 | 0.00 | 0.00 | 0.00 | 92 | 1007.0 |
| 20260510070205 | 58 | 164 | 1.0 | 2.0 | 0.00 | 0.00 | 0.00 | 91 | 1006.7 |
| 20260510065700 | 59 | 138 | 1.0 | 2.0 | 0.00 | 0.00 | 0.00 | 91 | 1006.7 |
| 20260510065157 | 58 | 135 | 1.0 | 2.0 | 0.00 | 0.00 | 0.00 | 91 | 1006.9 |
| 20260510064653 | 59 | 150 | 0.0 | 2.0 | 0.00 | 0.00 | 0.00 | 91 | 1006.7 |
| 20260510064151 | 59 | 84 | 0.0 | 2.0 | 0.00 | 0.00 | 0.00 | 91 | 1006.7 |
| 20260510063648 | 59 | 122 | 0.0 | 1.0 | 0.00 | 0.00 | 0.00 | 91 | 1006.9 |
| 20260510063144 | 59 | 141 | 0.0 | 2.0 | 0.00 | 0.00 | 0.00 | 91 | 1006.9 |
| 20260510062641 | 59 | 115 | 2.0 | 3.0 | 0.00 | 0.00 | 0.00 | 91 | 1006.8 |
| 20260510062137 | 59 | 157 | 0.0 | 2.0 | 0.00 | 0.00 | 0.00 | 91 | 1006.9 |
| 20260510061632 | 58 | 110 | 0.0 | 2.0 | 0.00 | 0.00 | 0.00 | 90 | 1006.7 |
| 20260510061130 | 59 | 103 | 1.0 | 2.0 | 0.00 | 0.00 | 0.00 | 90 | 1007.0 |
| 20260510060625 | 59 | 44 | 0.0 | 2.0 | 0.00 | 0.00 | 0.00 | 90 | 1006.6 |
| 20260510060122 | 59 | 109 | 1.0 | 2.0 | 0.00 | 0.00 | 0.00 | 90 | 1006.9 |
| 20260510055618 | 59 | 106 | 1.0 | 2.0 | 0.00 | 0.00 | 0.00 | 90 | 1006.8 |
| 20260510055117 | 59 | 114 | 1.0 | 1.0 | 0.00 | 0.00 | 0.00 | 90 | 1006.8 |
| 20260510054612 | 59 | 107 | 0.0 | 2.0 | 0.00 | 0.00 | 0.00 | 90 | 1006.8 |
| 20260510054107 | 59 | 130 | 0.0 | 2.0 | 0.00 | 0.00 | 0.00 | 90 | 1006.9 |
| 20260510053607 | 59 | 108 | 0.0 | 2.0 | 0.00 | 0.00 | 0.00 | 90 | 1006.6 |
| 20260510053104 | 59 | 114 | 0.0 | 2.0 | 0.00 | 0.00 | 0.00 | 90 | 1006.7 |
| 20260510052600 | 59 | 118 | 0.0 | 2.0 | 0.00 | 0.00 | 0.00 | 90 | 1006.8 |
| 20260510052056 | 59 | 69 | 0.0 | 1.0 | 0.00 | 0.00 | 0.00 | 90 | 1007.1 |
| 20260510051551 | 59 | 189 | 0.0 | 1.0 | 0.00 | 0.00 | 0.00 | 90 | 1007.0 |
| 20260510051048 | 58 | 129 | 0.0 | 1.0 | 0.00 | 0.00 | 0.00 | 90 | 1007.0 |
| 20260510050540 | 58 | 142 | 1.0 | 2.0 | 0.00 | 0.00 | 0.00 | 90 | 1007.1 |
| 20260510050037 | 58 | 118 | 0.0 | 2.0 | 0.00 | 0.00 | 0.00 | 90 | 1006.8 |
| 20260510045535 | 58 | 143 | 0.0 | 1.0 | 0.00 | 0.00 | 0.00 | 91 | 1007.0 |
| 20260510045030 | 58 | 109 | 1.0 | 2.0 | 0.00 | 0.00 | 0.00 | 91 | 1007.2 |
| 20260510044527 | 58 | 101 | 0.0 | 2.0 | 0.00 | 0.00 | 0.00 | 91 | 1007.2 |
| 20260510044025 | 58 | 125 | 0.0 | 2.0 | 0.00 | 0.00 | 0.00 | 90 | 1007.1 |
| 20260510043520 | 58 | 122 | 0.0 | 2.0 | 0.00 | 0.00 | 0.00 | 90 | 1007.0 |
| 20260510043015 | 58 | 133 | 2.0 | 2.0 | 0.00 | 0.00 | 0.00 | 90 | 1006.9 |
| 20260510042510 | 58 | 243 | 0.0 | 2.0 | 0.00 | 0.00 | 0.00 | 90 | 1006.8 |
| 20260510042005 | 58 | 122 | 1.0 | 2.0 | 0.00 | 0.00 | 0.00 | 90 | 1006.8 |
| 20260510041503 | 58 | 92 | 1.0 | 2.0 | 0.00 | 0.00 | 0.00 | 90 | 1006.9 |
| 20260510041000 | 58 | 101 | 1.0 | 2.0 | 0.00 | 0.00 | 0.00 | 90 | 1006.7 |
| 20260510040456 | 58 | 76 | 0.0 | 2.0 | 0.00 | 0.00 | 0.00 | 90 | 1006.8 |
| 20260510035952 | 58 | 107 | 0.0 | 2.0 | 0.00 | 0.00 | 0.00 | 90 | 1006.9 |
| 20260510035449 | 58 | 98 | 1.0 | 2.0 | 0.00 | 0.00 | 0.00 | 90 | 1006.7 |
| 20260510034948 | 58 | 116 | 0.0 | 2.0 | 0.00 | 0.00 | 0.00 | 90 | 1007.0 |
| 20260510034447 | 58 | 103 | 1.0 | 2.0 | 0.00 | 0.00 | 0.00 | 89 | 1006.9 |
| 20260510033943 | 58 | 107 | 1.0 | 2.0 | 0.00 | 0.00 | 0.00 | 89 | 1006.9 |
| 20260510033439 | 59 | 200 | 0.0 | 2.0 | 0.00 | 0.00 | 0.00 | 89 | 1006.6 |
| 20260510032937 | 58 | 136 | 1.0 | 3.0 | 0.00 | 0.00 | 0.00 | 90 | 1006.9 |
| 20260510032434 | 58 | 55 | 1.0 | 2.0 | 0.00 | 0.00 | 0.00 | 90 | 1006.8 |
| 20260510031928 | 58 | 123 | 1.0 | 2.0 | 0.00 | 0.00 | 0.00 | 89 | 1006.6 |
| 20260510031424 | 59 | 131 | 0.0 | 2.0 | 0.00 | 0.00 | 0.00 | 89 | 1006.6 |
| 20260510030920 | 59 | 176 | 2.0 | 2.0 | 0.00 | 0.00 | 0.00 | 89 | 1006.6 |
| 20260510030416 | 59 | 130 | 1.0 | 2.0 | 0.00 | 0.00 | 0.00 | 89 | 1006.3 |
| 20260510025914 | 59 | 142 | 1.0 | 2.0 | 0.00 | 0.00 | 0.00 | 89 | 1006.4 |
| 20260510025410 | 59 | 42 | 0.0 | 2.0 | 0.00 | 0.00 | 0.00 | 89 | 1006.5 |
| 20260510024908 | 59 | 113 | 0.0 | 2.0 | 0.00 | 0.00 | 0.00 | 88 | 1006.2 |
| 20260510024404 | 59 | 165 | 0.0 | 3.0 | 0.00 | 0.00 | 0.00 | 88 | 1006.5 |
| 20260510023900 | 60 | 158 | 0.0 | 1.0 | 0.00 | 0.00 | 0.00 | 88 | 1006.1 |
| 20260510023357 | 60 | 308 | 0.0 | 3.0 | 0.00 | 0.00 | 0.00 | 88 | 1006.3 |
| 20260510022854 | 60 | 113 | 0.0 | 2.0 | 0.00 | 0.00 | 0.00 | 88 | 1006.1 |
| 20260510022353 | 60 | 204 | 0.0 | 2.0 | 0.00 | 0.00 | 0.00 | 88 | 1006.1 |
| 20260510021852 | 60 | 76 | 0.0 | 2.0 | 0.00 | 0.00 | 0.00 | 88 | 1006.4 |
| 20260510021350 | 60 | 158 | 2.0 | 2.0 | 0.00 | 0.00 | 0.00 | 89 | 1006.1 |
| 20260510020847 | 60 | 143 | 0.0 | 1.0 | 0.00 | 0.00 | 0.00 | 88 | 1006.0 |
| 20260510020347 | 60 | 116 | 0.0 | 1.0 | 0.00 | 0.00 | 0.00 | 88 | 1006.1 |
| 20260510015842 | 60 | 89 | 0.0 | 1.0 | 0.00 | 0.00 | 0.00 | 88 | 1005.9 |
| 20260510015338 | 60 | 107 | 0.0 | 1.0 | 0.00 | 0.00 | 0.00 | 88 | 1006.1 |
| 20260510014834 | 60 | 102 | 0.0 | 1.0 | 0.00 | 0.00 | 0.00 | 88 | 1005.8 |
| 20260510014331 | 60 | 113 | 0.0 | 1.0 | 0.00 | 0.00 | 0.00 | 87 | 1006.0 |
| 20260510013827 | 61 | 99 | 0.0 | 1.0 | 0.00 | 0.00 | 0.00 | 87 | 1005.8 |
| 20260510013323 | 61 | 129 | 0.0 | 1.0 | 0.00 | 0.00 | 0.00 | 87 | 1005.9 |
| 20260510012818 | 61 | 116 | 0.0 | 2.0 | 0.00 | 0.00 | 0.00 | 86 | 1005.9 |
| 20260510012318 | 61 | 92 | 1.0 | 1.0 | 0.00 | 0.00 | 0.00 | 86 | 1005.9 |
| 20260510011813 | 61 | 130 | 0.0 | 1.0 | 0.00 | 0.00 | 0.00 | 85 | 1005.7 |
| 20260510011308 | 61 | 130 | 0.0 | 0.0 | 0.00 | 0.00 | 0.00 | 85 | 1005.9 |
| 20260510010805 | 62 | 42 | 0.0 | 1.0 | 0.00 | 0.00 | 0.00 | 85 | 1005.5 |
| 20260510010303 | 62 | 37 | 0.0 | 0.0 | 0.00 | 0.00 | 0.00 | 84 | 1005.6 |
| 20260510005759 | 62 | 66 | 0.0 | 1.0 | 0.00 | 0.00 | 0.00 | 84 | 1005.7 |
| 20260510005255 | 62 | 135 | 0.0 | 0.0 | 0.00 | 0.00 | 0.00 | 83 | 1005.5 |
| 20260510004754 | 63 | 113 | 0.0 | 0.0 | 0.00 | 0.00 | 0.00 | 83 | 1005.5 |
| 20260510004251 | 63 | 89 | 0.0 | 1.0 | 0.00 | 0.00 | 0.00 | 82 | 1005.5 |
| 20260510003748 | 63 | 112 | 1.0 | 2.0 | 0.00 | 0.00 | 0.00 | 81 | 1005.3 |
| 20260510003245 | 64 | 89 | 0.0 | 0.0 | 0.00 | 0.00 | 0.00 | 80 | 1005.3 |
| 20260510002743 | 64 | 113 | 0.0 | 0.0 | 0.00 | 0.00 | 0.00 | 79 | 1005.3 |
| 20260510002241 | 64 | 113 | 0.0 | 0.0 | 0.00 | 0.00 | 0.00 | 78 | 1005.3 |
| 20260510001737 | 65 | 142 | 0.0 | 0.0 | 0.00 | 0.00 | 0.00 | 77 | 1005.2 |
| 20260510001236 | 65 | 113 | 0.0 | 0.0 | 0.00 | 0.00 | 0.00 | 76 | 1005.2 |
| 20260510000732 | 66 | 44 | 0.0 | 0.0 | 0.00 | 0.00 | 0.00 | 76 | 1005.1 |
| 20260510000229 | 66 | 31 | 0.0 | 0.0 | 0.00 | 0.00 | 0.00 | 75 | 1005.0 |
| 20260509235726 | 66 | 37 | 0.0 | 0.0 | 0.00 | 0.00 | 0.00 | 74 | 1005.1 |
| 20260509235222 | 67 | 57 | 0.0 | 1.0 | 0.00 | 0.00 | 0.00 | 73 | 1004.9 |
| 20260509234718 | 67 | 49 | 0.0 | 0.0 | 0.00 | 0.00 | 0.00 | 72 | 1004.9 |
| 20260509234215 | 68 | 49 | 0.0 | 0.0 | 0.00 | 0.00 | 0.00 | 71 | 1005.0 |
| 20260509233713 | 68 | 49 | 0.0 | 0.0 | 0.00 | 0.00 | 0.00 | 70 | 1005.2 |
| 20260509233205 | 68 | 49 | 0.0 | 0.0 | 0.00 | 0.00 | 0.00 | 69 | 1005.0 |
| 20260509232701 | 69 | 49 | 0.0 | 0.0 | 0.00 | 0.00 | 0.00 | 68 | 1004.9 |
| 20260509232158 | 69 | 49 | 0.0 | 0.0 | 0.00 | 0.00 | 0.00 | 67 | 1004.9 |
| 20260509231655 | 69 | 49 | 0.0 | 1.0 | 0.00 | 0.00 | 0.00 | 66 | 1004.9 |
| 20260509231152 | 70 | 32 | 0.0 | 0.0 | 0.00 | 0.00 | 0.00 | 65 | 1004.8 |
| 20260509230649 | 70 | 119 | 0.0 | 1.0 | 0.00 | 0.00 | 0.00 | 64 | 1005.0 |
| 20260509230146 | 70 | 66 | 0.0 | 0.0 | 0.00 | 0.00 | 0.00 | 64 | 1004.9 |
| 20260509225642 | 70 | 89 | 0.0 | 1.0 | 0.00 | 0.00 | 0.00 | 63 | 1004.8 |
| 20260509225137 | 70 | 55 | 0.0 | 1.0 | 0.00 | 0.00 | 0.00 | 63 | 1005.1 |
| 20260509224633 | 70 | 55 | 0.0 | 1.0 | 0.00 | 0.00 | 0.00 | 63 | 1004.9 |
| 20260509224130 | 70 | 15 | 0.0 | 2.0 | 0.00 | 0.00 | 0.00 | 62 | 1005.1 |
| 20260509223626 | 70 | 55 | 0.0 | 1.0 | 0.00 | 0.00 | 0.00 | 62 | 1005.0 |
| 20260509223119 | 71 | 304 | 0.0 | 1.0 | 0.00 | 0.00 | 0.00 | 61 | 1005.1 |
| 20260509222615 | 71 | 352 | 0.0 | 1.0 | 0.00 | 0.00 | 0.00 | 62 | 1005.0 |
| 20260509222110 | 71 | 322 | 0.0 | 1.0 | 0.00 | 0.00 | 0.00 | 62 | 1005.0 |
| 20260509221606 | 71 | 15 | 0.0 | 2.0 | 0.00 | 0.00 | 0.00 | 61 | 1005.3 |
| 20260509221103 | 71 | 17 | 1.0 | 1.0 | 0.00 | 0.00 | 0.00 | 63 | 1005.1 |
| 20260509220558 | 72 | 116 | 1.0 | 1.0 | 0.00 | 0.00 | 0.00 | 62 | 1004.9 |
| 20260509220055 | 72 | 58 | 1.0 | 2.0 | 0.00 | 0.00 | 0.00 | 62 | 1005.2 |
| 20260509215550 | 71 | 6 | 0.0 | 1.0 | 0.00 | 0.00 | 0.00 | 63 | 1004.9 |
| 20260509215048 | 71 | 62 | 0.0 | 2.0 | 0.00 | 0.00 | 0.00 | 65 | 1005.0 |
| 20260509214545 | 71 | 51 | 0.0 | 2.0 | 0.00 | 0.00 | 0.00 | 64 | 1005.0 |
| 20260509214042 | 71 | 110 | 1.0 | 2.0 | 0.00 | 0.00 | 0.00 | 65 | 1005.1 |
| 20260509213538 | 71 | 229 | 0.0 | 2.0 | 0.00 | 0.00 | 0.00 | 65 | 1004.8 |
| 20260509213035 | 70 | 79 | 0.0 | 2.0 | 0.00 | 0.00 | 0.00 | 65 | 1005.0 |
| 20260509212532 | 71 | 37 | 0.0 | 2.0 | 0.00 | 0.00 | 0.00 | 65 | 1004.9 |
| 20260509212029 | 70 | 49 | 0.0 | 2.0 | 0.00 | 0.00 | 0.00 | 64 | 1004.9 |
| 20260509211524 | 69 | 50 | 0.0 | 1.0 | 0.00 | 0.00 | 0.00 | 65 | 1004.9 |
| 20260509211021 | 70 | 84 | 0.0 | 2.0 | 0.00 | 0.00 | 0.00 | 64 | 1004.8 |
| 20260509210518 | 70 | 327 | 2.0 | 2.0 | 0.00 | 0.00 | 0.00 | 64 | 1004.6 |
| 20260509210015 | 70 | 20 | 0.0 | 2.0 | 0.00 | 0.00 | 0.00 | 64 | 1004.7 |
| 20260509205509 | 71 | 325 | 0.0 | 1.0 | 0.00 | 0.00 | 0.00 | 63 | 1004.7 |
| 20260509205005 | 72 | 349 | 0.0 | 2.0 | 0.00 | 0.00 | 0.00 | 62 | 1004.6 |
| 20260509204501 | 73 | 5 | 0.0 | 1.0 | 0.00 | 0.00 | 0.00 | 59 | 1004.5 |
| 20260509203957 | 71 | 6 | 0.0 | 1.0 | 0.00 | 0.00 | 0.00 | 57 | 1004.7 |
| 20260509203453 | 73 | 34 | 0.0 | 1.0 | 0.00 | 0.00 | 0.00 | 55 | 1004.6 |
| 20260509202951 | 72 | 235 | 0.0 | 2.0 | 0.00 | 0.00 | 0.00 | 55 | 1004.6 |
| 20260509202447 | 72 | 173 | 0.0 | 0.0 | 0.00 | 0.00 | 0.00 | 55 | 1004.9 |
| 20260509201942 | 72 | 173 | 0.0 | 0.0 | 0.00 | 0.00 | 0.00 | 55 | 1004.8 |
| 20260509201438 | 72 | 6 | 0.0 | 0.0 | 0.00 | 0.00 | 0.00 | 54 | 1004.7 |
| 20260509200935 | 73 | 142 | 2.0 | 2.0 | 0.00 | 0.00 | 0.00 | 54 | 1005.0 |
| 20260509200434 | 73 | 329 | 0.0 | 0.0 | 0.00 | 0.00 | 0.00 | 56 | 1005.0 |
| 20260509195932 | 73 | 299 | 0.0 | 2.0 | 0.00 | 0.00 | 0.00 | 53 | 1005.0 |
| 20260509195427 | 74 | 269 | 0.0 | 1.0 | 0.00 | 0.00 | 0.00 | 50 | 1005.0 |
| 20260509194920 | 74 | 91 | 0.0 | 2.0 | 0.00 | 0.00 | 0.00 | 51 | 1005.3 |
| 20260509194416 | 75 | 36 | 2.0 | 3.0 | 0.00 | 0.00 | 0.00 | 50 | 1005.2 |
| 20260509193914 | 75 | 75 | 0.0 | 2.0 | 0.00 | 0.00 | 0.00 | 51 | 1005.3 |
| 20260509193413 | 75 | 237 | 1.0 | 3.0 | 0.00 | 0.00 | 0.00 | 51 | 1005.3 |
| 20260509192909 | 75 | 116 | 2.0 | 2.0 | 0.00 | 0.00 | 0.00 | 51 | 1005.2 |
| 20260509192405 | 75 | 50 | 0.0 | 2.0 | 0.00 | 0.00 | 0.00 | 52 | 1005.6 |
| 20260509191901 | 75 | 325 | 2.0 | 2.0 | 0.00 | 0.00 | 0.00 | 52 | 1005.6 |
| 20260509191357 | 74 | 89 | 0.0 | 3.0 | 0.00 | 0.00 | 0.00 | 52 | 1005.6 |
| 20260509190853 | 73 | 74 | 1.0 | 2.0 | 0.00 | 0.00 | 0.00 | 53 | 1005.5 |
| 20260509190350 | 72 | 30 | 1.0 | 3.0 | 0.00 | 0.00 | 0.00 | 53 | 1005.5 |
| 20260509185848 | 72 | 17 | 2.0 | 3.0 | 0.00 | 0.00 | 0.00 | 53 | 1006.1 |
| 20260509185344 | 73 | 311 | 0.0 | 4.0 | 0.00 | 0.00 | 0.00 | 53 | 1005.9 |
| 20260509184841 | 72 | 292 | 0.0 | 2.0 | 0.00 | 0.00 | 0.00 | 53 | 1006.1 |
| 20260509184338 | 72 | 188 | 1.0 | 1.0 | 0.00 | 0.00 | 0.00 | 52 | 1006.1 |
| 20260509183835 | 72 | 14 | 0.0 | 2.0 | 0.00 | 0.00 | 0.00 | 54 | 1006.4 |
| 20260509183330 | 71 | 172 | 1.0 | 2.0 | 0.00 | 0.00 | 0.00 | 53 | 1006.5 |
| 20260509182826 | 72 | 5 | 2.0 | 3.0 | 0.00 | 0.00 | 0.00 | 51 | 1006.5 |
| 20260509182323 | 73 | 150 | 0.0 | 3.0 | 0.00 | 0.00 | 0.00 | 51 | 1006.5 |
| 20260509181821 | 73 | 191 | 2.0 | 3.0 | 0.00 | 0.00 | 0.00 | 52 | 1006.5 |
| 20260509181318 | 73 | 81 | 1.0 | 4.0 | 0.00 | 0.00 | 0.00 | 52 | 1006.6 |
| 20260509180815 | 72 | 216 | 0.0 | 3.0 | 0.00 | 0.00 | 0.00 | 54 | 1006.6 |
| 20260509180311 | 72 | 140 | 2.0 | 3.0 | 0.00 | 0.00 | 0.00 | 54 | 1006.5 |
| 20260509175808 | 72 | 233 | 1.0 | 2.0 | 0.00 | 0.00 | 0.00 | 54 | 1006.6 |
| 20260509175306 | 72 | 51 | 2.0 | 5.0 | 0.00 | 0.00 | 0.00 | 54 | 1006.9 |
| 20260509174800 | 72 | 89 | 0.0 | 2.0 | 0.00 | 0.00 | 0.00 | 55 | 1006.7 |
| 20260509174256 | 71 | 219 | 1.0 | 3.0 | 0.00 | 0.00 | 0.00 | 56 | 1007.0 |
| 20260509173752 | 71 | 99 | 2.0 | 3.0 | 0.00 | 0.00 | 0.00 | 57 | 1006.8 |
| 20260509173247 | 70 | 41 | 0.0 | 4.0 | 0.00 | 0.00 | 0.00 | 57 | 1006.7 |
| 20260509172744 | 70 | 123 | 0.0 | 3.0 | 0.00 | 0.00 | 0.00 | 56 | 1006.8 |
| 20260509172241 | 70 | 217 | 1.0 | 3.0 | 0.00 | 0.00 | 0.00 | 57 | 1007.1 |
| 20260509171736 | 70 | 135 | 1.0 | 3.0 | 0.00 | 0.00 | 0.00 | 56 | 1007.1 |
| 20260509171232 | 70 | 108 | 2.0 | 4.0 | 0.00 | 0.00 | 0.00 | 57 | 1007.0 |
| 20260509170729 | 70 | 153 | 1.0 | 3.0 | 0.00 | 0.00 | 0.00 | 55 | 1007.0 |
| 20260509170225 | 70 | 220 | 0.0 | 4.0 | 0.00 | 0.00 | 0.00 | 55 | 1007.3 |
| 20260509165724 | 69 | 102 | 2.0 | 4.0 | 0.00 | 0.00 | 0.00 | 55 | 1006.8 |
| 20260509165219 | 70 | 265 | 1.0 | 4.0 | 0.00 | 0.00 | 0.00 | 56 | 1007.2 |
| 20260509164715 | 70 | 161 | 2.0 | 3.0 | 0.00 | 0.00 | 0.00 | 55 | 1007.2 |
| 20260509164211 | 70 | 41 | 1.0 | 3.0 | 0.00 | 0.00 | 0.00 | 58 | 1007.0 |
| 20260509163709 | 70 | 120 | 3.0 | 4.0 | 0.00 | 0.00 | 0.00 | 57 | 1007.3 |
| 20260509163205 | 70 | 114 | 3.0 | 5.0 | 0.00 | 0.00 | 0.00 | 57 | 1007.0 |
| 20260509162703 | 69 | 269 | 0.0 | 5.0 | 0.00 | 0.00 | 0.00 | 59 | 1007.4 |
| 20260509162158 | 69 | 115 | 2.0 | 4.0 | 0.00 | 0.00 | 0.00 | 59 | 1007.4 |
| 20260509161654 | 69 | 188 | 3.0 | 4.0 | 0.00 | 0.00 | 0.00 | 59 | 1007.4 |
| 20260509161150 | 68 | 76 | 1.0 | 4.0 | 0.00 | 0.00 | 0.00 | 59 | 1007.4 |
| 20260509160645 | 69 | 99 | 3.0 | 3.0 | 0.00 | 0.00 | 0.00 | 60 | 1007.5 |
| 20260509160141 | 68 | 15 | 2.0 | 4.0 | 0.00 | 0.00 | 0.00 | 60 | 1007.7 |
| 20260509155638 | 68 | 107 | 2.0 | 5.0 | 0.00 | 0.00 | 0.00 | 60 | 1007.7 |
| 20260509155134 | 68 | 115 | 3.0 | 5.0 | 0.00 | 0.00 | 0.00 | 61 | 1007.9 |
| 20260509154630 | 69 | 38 | 3.0 | 3.0 | 0.00 | 0.00 | 0.00 | 60 | 1007.7 |
| 20260509154127 | 69 | 113 | 3.0 | 3.0 | 0.00 | 0.00 | 0.00 | 61 | 1007.8 |
| 20260509153624 | 68 | 15 | 2.0 | 2.0 | 0.00 | 0.00 | 0.00 | 63 | 1007.7 |
| 20260509153121 | 67 | 75 | 2.0 | 2.0 | 0.00 | 0.00 | 0.00 | 64 | 1007.6 |
| 20260509152616 | 67 | 98 | 1.0 | 3.0 | 0.00 | 0.00 | 0.00 | 64 | 1007.8 |
| 20260509152114 | 67 | 139 | 2.0 | 4.0 | 0.00 | 0.00 | 0.00 | 64 | 1007.8 |
| 20260509151610 | 67 | 48 | 3.0 | 5.0 | 0.00 | 0.00 | 0.00 | 64 | 1008.0 |
| 20260509151108 | 67 | 101 | 3.0 | 3.0 | 0.00 | 0.00 | 0.00 | 64 | 1008.1 |
| 20260509150605 | 66 | 42 | 2.0 | 3.0 | 0.00 | 0.00 | 0.00 | 64 | 1008.3 |
| 20260509150104 | 66 | 232 | 3.0 | 3.0 | 0.00 | 0.00 | 0.00 | 64 | 1008.2 |
| 20260509145559 | 67 | 168 | 2.0 | 3.0 | 0.00 | 0.00 | 0.00 | 64 | 1008.5 |
| 20260509145054 | 67 | 83 | 0.0 | 4.0 | 0.00 | 0.00 | 0.00 | 63 | 1008.5 |
| 20260509144552 | 67 | 145 | 0.0 | 3.0 | 0.00 | 0.00 | 0.00 | 64 | 1008.6 |
| 20260509144049 | 67 | 136 | 0.0 | 3.0 | 0.00 | 0.00 | 0.00 | 64 | 1008.7 |
| 20260509143546 | 66 | 235 | 2.0 | 5.0 | 0.00 | 0.00 | 0.00 | 65 | 1008.5 |
| 20260509143044 | 66 | 79 | 2.0 | 3.0 | 0.00 | 0.00 | 0.00 | 66 | 1008.6 |
| 20260509142538 | 66 | 98 | 1.0 | 4.0 | 0.00 | 0.00 | 0.00 | 66 | 1008.8 |
| 20260509142035 | 65 | 251 | 2.0 | 4.0 | 0.00 | 0.00 | 0.00 | 67 | 1008.8 |
| 20260509141526 | 65 | 12 | 1.0 | 3.0 | 0.00 | 0.00 | 0.00 | 70 | 1008.8 |
| 20260509141023 | 64 | 147 | 0.0 | 2.0 | 0.00 | 0.00 | 0.00 | 69 | 1008.9 |
| 20260509140519 | 65 | 115 | 0.0 | 5.0 | 0.00 | 0.00 | 0.00 | 68 | 1008.8 |
| 20260509140018 | 65 | 189 | 3.0 | 6.0 | 0.00 | 0.00 | 0.00 | 69 | 1008.9 |
| 20260509135514 | 64 | 101 | 1.0 | 2.0 | 0.00 | 0.00 | 0.00 | 70 | 1008.9 |
| 20260509135012 | 64 | 150 | 0.0 | 3.0 | 0.00 | 0.00 | 0.00 | 68 | 1009.0 |
| 20260509134509 | 65 | 205 | 0.0 | 2.0 | 0.00 | 0.00 | 0.00 | 70 | 1009.0 |
| 20260509134007 | 64 | 29 | 0.0 | 2.0 | 0.00 | 0.00 | 0.00 | 70 | 1009.0 |
| 20260509133503 | 64 | 97 | 1.0 | 3.0 | 0.00 | 0.00 | 0.00 | 70 | 1009.0 |
| 20260509133001 | 64 | 55 | 2.0 | 3.0 | 0.00 | 0.00 | 0.00 | 71 | 1009.1 |
| 20260509132459 | 64 | 145 | 1.0 | 4.0 | 0.00 | 0.00 | 0.00 | 71 | 1008.8 |
| 20260509131956 | 64 | 101 | 2.0 | 2.0 | 0.00 | 0.00 | 0.00 | 71 | 1009.0 |
| 20260509131453 | 64 | 229 | 1.0 | 3.0 | 0.00 | 0.00 | 0.00 | 71 | 1008.9 |
| 20260509130949 | 63 | 129 | 1.0 | 2.0 | 0.00 | 0.00 | 0.00 | 73 | 1008.8 |
| 20260509130444 | 63 | 146 | 2.0 | 3.0 | 0.00 | 0.00 | 0.00 | 73 | 1008.8 |
| 20260509125943 | 63 | 57 | 2.0 | 4.0 | 0.00 | 0.00 | 0.00 | 74 | 1009.1 |
| 20260509125439 | 62 | 153 | 0.0 | 2.0 | 0.00 | 0.00 | 0.00 | 75 | 1008.8 |
| 20260509124934 | 62 | 150 | 1.0 | 3.0 | 0.00 | 0.00 | 0.00 | 76 | 1009.0 |
| 20260509124432 | 61 | 109 | 2.0 | 3.0 | 0.00 | 0.00 | 0.00 | 76 | 1009.2 |
| 20260509123929 | 61 | 83 | 2.0 | 3.0 | 0.00 | 0.00 | 0.00 | 77 | 1009.2 |
| 20260509123426 | 61 | 96 | 2.0 | 3.0 | 0.00 | 0.00 | 0.00 | 77 | 1009.1 |
| 20260509122922 | 61 | 124 | 3.0 | 4.0 | 0.00 | 0.00 | 0.00 | 78 | 1009.0 |
| 20260509122420 | 60 | 10 | 0.0 | 3.0 | 0.00 | 0.00 | 0.00 | 78 | 1009.0 |